{"data":{"norad_id":40718,"intl_designator":"2015-032D","name":"CARBONITE 1 (CBNT-1)","alt_names":[],"object_type":"PAYLOAD","status":"ACTIVE","operator":null,"country":"UK","launch_date":"2015-07-10","launch_site_code":"SRILR","launch_vehicle":null,"mission":null,"orbit_class":"UNKNOWN","rcs_meters":0.501,"size_class":null,"mass_kg":null,"dimensions":null,"purposes":["earth_obs"],"wikipedia_slug":null,"has_3d_model":false,"image_url":null,"decayed_at":null,"tle_current":{"epoch":"2026-05-25T04:23:30.280704Z","epoch_age_seconds":55408,"freshness":"FRESH","line1":"1 40718U 15032D   26145.18298936  .00001423  00000+0  17886-3 0  9997","line2":"2 40718  97.6507 324.2153 0014861  16.0451 344.1231 14.83503348585930","mean_motion":14.83503348,"eccentricity":0.0014861,"inclination_deg":97.6507,"raan_deg":324.2153,"arg_perigee_deg":16.0451,"mean_anomaly_deg":344.1231,"bstar":0.00017886,"rev_number":58593,"period_min":97.067526132742,"perigee_km":607.89014915928,"apogee_km":628.68492216418,"semimajor_km":6996.4245356617,"source":"CELESTRAK","updated_at":"2026-05-25T13:38:12.789025Z"}}}